Theta_e
347 346 338 338 345 347 344 339 338 336 334 332 330 330 329 326 323 318 317 317 314 312 310 309 309 310 309 309 308 307 305 303 302 302 302 303 303 303 304 304 303 305 307
343 337 340 342 345 342 339 339 337 335 332 331 329 328 325 322 318 318 318 316 311 309 308 309 309 309 309 307 305 303 302 302 302 302 302 303 303 302 302 303 305 306 307
340 344 346 346 340 341 339 337 334 332 331 328 327 325 321 318 319 319 315 309 308 308 309 309 309 308 306 302 302 303 302 302 301 302 302 302 301 302 304 306 305 307 307
344 345 345 340 339 339 335 332 331 329 327 325 323 320 319 319 318 312 308 308 308 309 308 306 304 302 301 301 301 301 301 302 301 301 301 301 303 304 303 304 307 307 307
344 342 339 339 338 335 331 330 328 325 324 321 320 320 319 316 310 308 308 308 306 304 302 302 301 301 300 300 300 300 301 301 301 301 302 303 303 305 305 304 304 306 307
328 334 336 335 335 333 330 326 324 323 321 321 320 317 311 308 308 308 307 306 304 304 303 302 301 299 299 300 301 301 301 303 303 303 303 303 304 304 305 304 304 303 301
332 330 332 333 331 327 326 324 321 321 320 318 312 307 307 307 305 304 304 304 304 304 302 301 299 298 299 301 301 302 302 301 302 303 305 303 305 304 304 306 304 302 302
333 331 332 329 326 324 323 321 320 318 316 309 306 305 304 303 303 302 302 303 304 301 301 299 298 298 299 300 301 301 302 303 303 303 304 304 303 303 303 303 301 302 303
326 325 325 325 324 322 321 319 317 314 307 306 303 300 298 298 296 296 299 302 303 301 299 298 298 298 299 299 299 301 302 303 303 303 302 303 303 303 303 303 304 303 302
324 323 324 325 322 320 318 315 309 306 305 302 299 296 295 294 295 297 301 301 300 299 298 298 298 297 296 295 298 299 301 302 304 305 305 305 305 304 303 302 303 302 299
323 324 322 320 319 317 312 308 306 303 302 300 299 296 294 294 294 296 298 298 298 299 298 297 296 295 293 296 297 299 300 302 303 304 305 305 304 304 304 303 302 302 301
323 321 317 316 313 307 306 304 303 303 302 301 299 294 294 294 295 298 299 300 299 297 296 296 295 294 293 293 295 298 300 302 303 304 305 305 304 304 304 305 304 303 303
318 316 312 307 306 305 304 304 304 303 302 300 298 294 296 297 298 298 299 297 295 294 294 293 293 292 291 291 292 298 300 301 302 303 303 303 303 303 304 306 305 306 305
316 309 307 307 306 305 305 305 304 305 303 300 295 294 295 295 295 295 295 294 294 293 292 292 291 291 290 290 291 294 298 298 299 300 301 302 304 304 305 304 305 305 306
313 310 308 306 306 305 305 304 303 302 301 300 293 293 294 294 295 294 294 294 293 292 291 291 290 290 290 289 289 290 296 298 298 300 302 303 305 305 303 304 304 305 304
309 308 307 306 306 304 303 301 300 300 296 293 293 294 295 295 294 294 294 293 293 292 291 290 289 289 289 288 289 289 290 296 297 298 299 300 303 303 302 304 304 304 305
309 306 305 304 304 304 302 301 295 292 292 293 294 294 295 295 294 294 293 293 292 292 290 289 288 288 288 288 288 289 289 290 297 297 298 298 299 301 300 302 304 304 306
304 300 299 299 298 296 294 293 292 292 293 293 294 294 294 294 293 293 293 292 292 291 289 288 288 287 287 287 288 288 289 290 292 297 298 297 298 298 298 300 301 302 304
296 296 299 298 294 292 292 293 294 294 294 294 294 294 293 293 293 292 292 291 290 290 289 288 287 287 287 287 287 288 289 289 290 292 297 296 297 297 297 298 300 301 303
301 301 300 300 299 297 297 296 296 295 295 295 294 294 293 293 292 292 291 291 290 290 289 288 287 287 287 287 287 287 288 289 290 290 293 295 296 297 296 297 298 301 302
301 300 300 300 299 299 298 297 297 296 295 294 294 293 293 292 292 292 291 291 290 289 289 288 287 287 287 287 287 287 287 288 289 290 290 292 294 295 296 296 297 299 302
300 299 299 299 299 298 297 296 295 295 294 294 293 293 293 292 292 291 291 290 290 290 289 288 287 287 287 287 287 287 287 288 289 290 290 290 291 293 295 297 297 299 301
299 299 299 299 298 297 294 293 293 293 293 293 293 293 292 292 291 291 290 290 290 289 289 288 287 287 286 286 286 286 287 288 289 290 289 290 290 289 293 295 296 298 299
299 299 298 298 297 296 295 294 294 294 293 293 293 292 292 291 291 290 290 290 290 289 289 287 287 287 286 286 286 286 286 287 288 289 289 289 290 290 290 294 295 296 297
298 298 298 297 296 295 295 294 294 294 293 293 292 292 291 291 290 290 290 290 289 289 288 287 287 286 286 286 286 286 286 286 288 288 289 289 289 289 289 290 293 295 295
297 297 297 296 296 296 295 295 294 294 293 292 292 292 291 290 290 290 289 289 289 288 288 287 286 286 286 286 286 286 286 286 287 288 288 289 289 289 289 289 291 293 294
Wind_Speed
37 37 38 37 34 34 29 22 21 19 11 7 5 7 6 8 6 5 2 4 6 9 11 14 16 15 17 18 20 21 22 22 23 27 22 19 20 19 20 23 23 23 23
41 42 42 40 35 34 27 23 20 15 11 8 9 8 9 8 5 2 5 7 9 12 14 15 14 16 18 20 22 21 20 18 20 24 23 23 20 22 25 26 22 24 26
46 41 41 39 37 31 27 23 18 16 12 14 14 12 8 5 3 4 7 9 9 11 12 14 15 17 19 21 20 18 18 18 16 19 23 23 28 28 28 24 29 25 26
46 46 44 38 33 27 25 23 19 17 18 17 13 10 7 4 2 4 4 6 7 9 11 13 14 18 19 19 18 19 21 21 21 21 24 29 28 28 29 32 30 31 31
45 44 40 32 27 27 25 22 22 21 17 14 11 8 6 4 1 2 3 4 7 9 10 13 17 19 18 19 19 21 22 23 23 24 25 26 28 33 34 33 33 33 32
26 30 34 31 26 29 27 25 22 19 16 12 9 6 4 3 2 2 3 4 4 9 11 15 19 19 19 18 19 19 20 21 21 21 23 26 28 29 29 31 32 35 35
22 28 30 31 31 30 28 26 22 18 14 10 8 6 6 6 6 6 3 4 5 9 13 17 21 20 19 19 21 20 21 23 18 19 22 22 26 26 27 28 28 28 29
26 35 34 35 35 31 27 24 21 17 12 10 9 9 8 8 8 6 3 6 7 9 10 17 20 19 21 22 23 24 23 24 22 21 20 21 22 23 23 23 24 26 25
42 41 38 36 33 29 25 22 19 16 14 12 12 11 10 10 9 5 2 5 8 7 13 17 17 19 21 23 26 26 25 22 19 18 17 18 18 19 19 20 20 25 26
40 37 35 31 30 28 24 22 20 15 17 15 15 15 16 13 11 8 6 7 7 9 13 16 18 20 22 24 25 29 30 28 25 23 20 18 17 16 16 17 19 21 22
36 32 30 27 26 24 22 18 18 19 18 16 15 16 15 14 12 9 8 7 11 12 14 15 17 20 23 22 24 27 28 26 24 22 22 22 20 18 16 15 17 17 18
33 31 30 28 24 23 23 23 19 17 17 16 15 15 16 13 14 15 15 16 14 13 13 13 15 17 19 20 23 24 25 24 24 24 24 25 25 23 19 15 15 15 14
33 32 30 30 27 25 24 23 20 16 15 14 14 16 19 18 16 15 15 15 12 11 11 12 13 15 18 19 22 23 26 27 27 26 25 24 24 22 20 18 17 17 13
31 32 30 28 28 26 23 20 16 13 13 13 12 15 18 17 15 15 14 12 10 12 13 13 13 15 16 18 22 25 28 30 28 27 25 24 21 21 22 21 20 21 18
29 28 27 26 24 22 19 17 15 14 8 9 15 17 16 17 17 15 13 12 13 14 13 14 17 19 20 23 25 27 28 29 31 28 26 26 25 24 24 22 21 20 20
30 27 25 24 22 22 23 24 17 11 10 16 17 15 17 17 15 11 9 10 13 14 15 19 21 23 25 26 27 28 29 30 31 31 28 26 26 25 26 23 22 22 21
23 24 22 20 21 20 20 18 21 23 22 21 19 18 15 14 11 9 8 9 12 13 19 20 22 23 24 25 26 27 29 29 29 31 32 30 27 25 27 25 23 23 23
20 18 20 21 21 21 20 21 23 25 26 23 18 14 11 8 7 8 7 6 12 17 20 21 23 24 25 25 26 26 27 29 29 30 32 33 30 28 28 27 25 25 24
27 27 26 26 26 26 27 28 26 25 23 21 17 14 12 10 10 11 10 12 15 18 20 21 22 23 24 25 25 24 25 28 29 30 30 34 33 31 30 28 26 24 24
25 24 23 26 27 27 25 23 21 19 18 17 15 11 8 6 10 13 13 15 16 18 18 21 22 22 24 26 26 25 25 28 29 32 31 33 35 35 34 30 26 24 23
28 27 24 23 22 19 17 15 14 16 16 17 13 10 7 7 10 11 12 16 18 19 19 19 22 23 24 25 26 26 26 27 28 29 31 33 36 39 35 30 26 22 22
25 22 19 19 18 17 14 11 12 15 19 16 13 10 6 7 8 10 12 16 18 19 19 19 22 23 24 25 26 27 27 26 28 28 30 32 35 41 37 32 28 24 23
22 24 21 20 19 18 21 22 23 22 18 13 10 8 6 6 7 9 11 14 16 17 19 19 21 22 22 23 25 27 27 26 26 26 28 29 32 40 40 35 31 26 25
24 24 23 22 22 21 21 22 21 19 16 12 8 8 8 6 5 6 8 10 13 16 18 19 21 21 22 22 23 25 25 22 22 22 22 25 28 32 40 38 33 29 26
21 23 24 23 21 23 26 24 20 17 13 10 8 6 7 8 5 3 4 8 11 14 17 18 18 19 20 21 22 23 23 20 18 20 20 21 24 28 34 38 36 32 30
24 25 22 23 23 23 21 19 17 14 11 10 6 4 3 4 4 2 3 7 11 14 16 16 17 18 18 19 21 21 22 22 17 18 19 19 22 25 30 33 36 36 33
Wind_Direction
193 196 196 194 194 192 190 170 167 154 146 130 132 162 187 194 198 205 245 303 330 332 330 338 342 340 343 340 340 340 332 326 321 321 334 340 340 334 327 331 332 337 348
188 188 193 194 192 183 169 166 160 144 129 141 152 165 182 187 186 243 287 302 327 331 337 339 340 342 337 340 339 340 336 335 336 333 342 343 342 340 338 337 343 352 353
181 184 186 188 174 165 160 155 151 140 147 151 157 170 165 174 202 288 321 324 332 344 344 340 341 340 343 348 346 346 343 342 341 332 338 339 337 340 341 345 348 351 348
179 182 183 164 153 148 148 143 144 155 155 152 155 153 166 185 245 296 321 344 357 356 348 351 358 357 355 357 358 351 347 344 341 340 332 330 338 346 344 343 346 348 347
182 167 156 150 153 144 142 149 156 155 145 149 151 156 175 200 258 4 9 20 31 36 30 25 20 7 10 8 1 355 347 339 332 329 333 335 341 344 344 344 344 344 348
146 133 141 153 144 144 152 155 155 146 146 147 151 159 138 111 81 57 54 59 50 49 28 20 14 12 13 13 8 0 355 342 337 338 341 332 337 340 342 342 343 347 348
146 165 154 146 143 148 154 156 149 142 140 143 138 113 113 107 93 83 78 61 43 41 22 11 12 17 16 16 9 1 355 359 350 345 342 342 341 342 340 341 342 344 347
180 159 146 145 150 152 154 148 141 139 138 131 121 103 94 99 87 68 34 50 72 60 11 11 19 18 15 9 5 6 2 355 358 355 348 342 340 337 335 338 340 346 353
154 151 149 149 148 152 149 144 139 140 136 128 106 94 79 89 84 82 108 81 97 44 20 23 23 15 13 2 358 358 3 6 5 4 355 345 341 338 336 340 348 349 352
150 147 149 153 153 148 144 141 133 134 130 116 102 82 74 84 92 116 116 90 64 43 27 31 26 21 13 4 2 2 4 6 4 3 2 356 347 351 350 349 350 349 349
148 146 146 147 144 144 139 131 131 133 121 110 92 77 79 83 90 106 122 92 68 48 43 39 28 19 11 10 11 9 7 3 6 8 8 4 4 4 360 354 352 348 346
144 146 144 145 142 136 133 129 131 128 118 103 80 79 82 93 95 89 82 76 64 52 44 29 20 12 12 12 12 11 10 9 11 14 14 12 10 10 8 357 351 350 337
142 143 144 141 138 134 131 130 131 132 119 97 74 89 102 101 95 85 76 72 62 49 33 20 12 12 14 15 13 15 18 17 15 15 14 14 14 10 5 357 356 354 0
146 144 143 142 139 139 137 141 139 150 126 100 94 109 105 104 99 90 80 68 51 38 33 29 24 22 21 19 20 22 24 23 19 16 13 13 14 14 11 2 358 359 354
150 146 144 146 146 143 142 140 140 132 116 98 123 110 110 103 87 77 68 55 43 34 29 33 31 27 25 24 24 24 25 23 21 17 12 8 11 10 11 3 5 8 11
149 149 148 148 150 149 149 145 139 135 137 138 117 110 102 93 92 82 65 56 44 34 31 35 32 29 27 24 22 23 22 21 20 18 17 12 9 7 10 8 10 13 11
149 148 150 152 157 161 161 158 146 130 129 128 116 104 99 101 87 63 43 32 43 35 40 39 34 30 28 26 25 23 22 22 21 19 18 16 10 13 15 7 7 8 7
147 147 151 153 150 145 143 137 135 135 131 120 114 109 100 91 85 67 46 24 41 41 38 35 33 30 27 26 24 22 22 21 22 21 21 20 15 15 15 8 7 7 8
135 132 131 128 129 130 129 126 126 125 122 120 115 99 92 85 71 63 52 46 44 43 38 34 33 30 28 26 24 22 23 23 22 20 23 23 21 14 17 11 6 10 12
137 136 136 135 135 133 132 130 132 130 121 120 121 112 108 85 69 59 53 47 45 43 36 31 31 30 29 26 22 21 23 24 22 20 20 21 24 21 15 12 10 9 14
149 145 147 147 145 139 134 136 136 129 125 133 129 116 93 73 69 59 50 43 40 37 31 26 27 28 28 25 23 22 22 24 24 22 20 20 21 26 17 15 13 16 20
152 150 151 149 142 136 136 152 154 150 147 144 130 121 105 88 73 57 45 39 34 31 28 24 25 25 24 22 21 21 22 22 22 23 22 22 21 25 20 18 17 22 25
159 152 158 155 152 145 136 134 137 144 144 139 131 128 121 99 77 59 44 35 27 24 23 22 24 25 24 22 21 21 21 24 22 18 19 21 24 25 25 23 20 25 31
162 162 159 157 153 148 143 144 145 146 147 141 136 120 110 106 90 68 43 27 20 20 20 20 21 21 21 22 23 24 23 24 22 18 15 21 25 28 26 26 27 27 32
172 164 160 156 156 150 148 147 151 158 158 152 143 120 106 106 115 76 18 9 7 14 19 20 20 18 21 21 24 24 24 20 18 17 16 21 27 32 33 26 31 33 37
171 163 159 160 165 167 168 167 169 169 164 161 154 129 118 118 107 98 343 348 357 11 17 16 17 17 18 21 25 24 23 22 22 19 20 22 24 31 38 31 29 38 38